Weather History for KIWI - March, 2014

Change the Weather History Date:

Tuesday, March 4, 2014

  Actual Average (KAUG) Record (KAUG)
Temperature  
Mean Temperature 10 °F 28 °F  
Max Temperature 25 °F 37 °F - ()
Min Temperature -4 °F 19 °F - ()
Degree Days  
Heating Degree Days 54 37  
Month to date heating degree days 150  
Since 1 July heating degree days 5493  
Cooling Degree Days 0 0  
Month to date cooling degree days 0  
Year to date cooling degree days 0  
Moisture  
Dew Point -1 °F    
Average Humidity 51    
Maximum Humidity 69    
Minimum Humidity 30    
Precipitation  
Precipitation 0.00 in 0.10 in - ()
Month to date precipitation 0.38  
Year to date precipitation 5.42  
Sea Level Pressure  
Sea Level Pressure 30.31 in    
Wind  
Wind Speed 2 mph (SW)    
Max Wind Speed 12 mph    
Max Gust Speed -    
Visibility 10 miles    
Events      
T = Trace of Precipitation, MM = Missing Value Source: NWS Daily Summary

Daily Weather History Graph

Daily Weather History Graph

Search for Another Location

Airport or City:

Trip Planner

Search our weather history database for the weather conditions in past years. The results will help you decide how hot, cold, wet, or windy it might be!

Date:

Astronomy

Mar. 04, 2014 Rise Set
Actual Time 6:10 AM EST 5:31 PM EST
Civil Twilight 5:41 AM EST 6:00 PM EST
Nautical Twilight 5:08 AM EST 6:33 PM EST
Astronomical Twilight 4:34 AM EST 7:06 PM EST
Moon 7:46 AM EST (3/4) 9:44 PM EST (3/4)
Length of Visible Light 12h 18m
Length of Day
11h 20m
Waxing Crescent, 14% of the Moon is Illuminated
Mar 4
Waxing Crescent
Mar 8
First Quarter
Mar 16
Full
Mar 23
Last Quarter
Mar 30
New

Hourly Weather History & Observations

Time (EST) Temp. Windchill Dew Point Humidity Pressure Visibility Wind Dir Wind Speed Gust Speed Precip Events Conditions
12:53 AM 1.0 °F - -9.0 °F 63% 30.32 in 10.0 mi Calm Calm - N/A   Clear
1:53 AM -0.0 °F - -8.0 °F 69% 30.32 in 10.0 mi Calm Calm - N/A   Clear
2:53 AM 5.0 °F - -13.0 °F 43% 30.32 in 10.0 mi Calm Calm - N/A   Clear
3:53 AM 1.9 °F -5.6 °F -11.9 °F 52% 30.35 in 10.0 mi NW 3.5 mph - N/A   Clear
4:53 AM -0.9 °F - -11.9 °F 60% 30.36 in 10.0 mi Calm Calm - N/A   Clear
5:53 AM -4.0 °F - -11.9 °F 69% 30.35 in 10.0 mi Calm Calm - N/A   Clear
6:53 AM -2.0 °F - -9.9 °F 69% 30.36 in 10.0 mi Calm Calm - N/A   Clear
7:53 AM 8.1 °F - -11.0 °F 42% 30.38 in 10.0 mi Calm Calm - N/A   Clear
8:53 AM 14.0 °F 8.2 °F -9.0 °F 35% 30.36 in 10.0 mi Variable 3.5 mph - N/A   Clear
9:53 AM 16.0 °F 10.4 °F -11.0 °F 30% 30.37 in 10.0 mi SW 3.5 mph - N/A   Clear
10:53 AM 19.0 °F 10.0 °F -8.0 °F 30% 30.36 in 10.0 mi SSW 6.9 mph - N/A   Clear
11:53 AM 21.0 °F 10.6 °F -2.0 °F 36% 30.33 in 10.0 mi SW 9.2 mph - N/A   Clear
12:53 PM 23.0 °F 15.8 °F 3.0 °F 42% 30.29 in 10.0 mi Variable 5.8 mph - N/A   Clear
1:53 PM 23.0 °F 11.7 °F 5.0 °F 46% 30.28 in 10.0 mi SW 11.5 mph - N/A   Clear
2:53 PM 24.1 °F 16.0 °F 9.0 °F 53% 30.27 in 10.0 mi SW 6.9 mph - N/A   Clear
3:53 PM 25.0 °F 18.1 °F 10.9 °F 55% 30.25 in 10.0 mi South 5.8 mph - N/A   Partly Cloudy
4:53 PM 25.0 °F 20.7 °F 10.9 °F 55% 30.25 in 10.0 mi SW 3.5 mph - N/A   Mostly Cloudy
5:53 PM 24.1 °F - 10.9 °F 57% 30.26 in 10.0 mi Calm Calm - N/A   Clear
6:53 PM 23.0 °F - 12.0 °F 63% 30.28 in 10.0 mi Calm Calm - N/A   Overcast
7:53 PM 23.0 °F - 12.9 °F 65% 30.28 in 10.0 mi Calm Calm - N/A   Mostly Cloudy
8:53 PM 23.0 °F 17.0 °F 5.0 °F 46% 30.28 in 10.0 mi Variable 4.6 mph - N/A   Overcast
9:53 PM 21.9 °F 17.2 °F 3.9 °F 46% 30.30 in 10.0 mi Variable 3.5 mph - N/A   Overcast
10:53 PM 21.0 °F - 3.9 °F 48% 30.30 in 10.0 mi Calm Calm - N/A   Overcast
11:53 PM 19.9 °F 13.4 °F 3.9 °F 50% 30.30 in 10.0 mi NNE 4.6 mph - N/A   Overcast